QPF
0.00 0.00 0.00 0.00 0.00 0.00 0.00 0.00 0.00 0.00 0.00 0.00 0.00 0.00 0.00 0.00 0.00 0.00 0.00 0.00 0.00 0.00 0.00 0.00 0.00 0.00 0.01 0.04 0.01 0.00 0.00 0.00 0.00 0.00 0.00 0.00 0.00 0.00 0.00 0.00 0.00 0.00 0.00 0.00 0.00 0.00 0.00
0.01 0.01 0.01 0.00 0.00 0.00 0.00 0.00 0.00 0.00 0.00 0.00 0.00 0.00 0.00 0.00 0.00 0.00 0.00 0.00 0.00 0.00 0.00 0.00 0.00 0.01 0.06 0.09 0.00 0.00 0.00 0.00 0.00 0.00 0.00 0.00 0.00 0.00 0.00 0.00 0.00 0.00 0.00 0.00 0.00 0.00 0.00
0.00 0.00 0.01 0.01 0.01 0.01 0.01 0.02 0.01 0.00 0.00 0.00 0.00 0.00 0.00 0.00 0.00 0.00 0.00 0.00 0.00 0.00 0.00 0.00 0.00 0.01 0.07 0.03 0.00 0.00 0.00 0.00 0.00 0.00 0.00 0.00 0.00 0.00 0.00 0.00 0.00 0.00 0.00 0.00 0.00 0.00 0.00
0.01 0.01 0.01 0.00 0.00 0.01 0.02 0.02 0.01 0.01 0.01 0.00 0.01 0.00 0.00 0.00 0.00 0.00 0.00 0.00 0.00 0.00 0.00 0.01 0.00 0.05 0.08 0.00 0.00 0.00 0.00 0.00 0.00 0.00 0.00 0.00 0.00 0.00 0.00 0.00 0.00 0.00 0.00 0.00 0.00 0.00 0.00
0.01 0.01 0.01 0.01 0.00 0.00 0.01 0.01 0.00 0.00 0.00 0.00 0.01 0.01 0.01 0.02 0.01 0.01 0.03 0.02 0.03 0.03 0.03 0.06 0.09 0.08 0.04 0.02 0.00 0.00 0.00 0.00 0.00 0.00 0.00 0.00 0.01 0.02 0.02 0.02 0.02 0.01 0.00 0.00 0.00 0.00 0.00
0.01 0.00 0.00 0.00 0.00 0.00 0.00 0.00 0.00 0.00 0.00 0.00 0.01 0.01 0.01 0.01 0.01 0.00 0.01 0.05 0.12 0.12 0.11 0.22 0.30 0.24 0.06 0.02 0.00 0.00 0.00 0.00 0.00 0.00 0.00 0.00 0.03 0.03 0.04 0.03 0.01 0.00 0.00 0.00 0.00 0.00 0.00
0.00 0.00 0.00 0.00 0.00 0.00 0.00 0.00 0.00 0.00 0.00 0.00 0.00 0.01 0.00 0.00 0.00 0.00 0.01 0.05 0.09 0.11 0.07 0.07 0.06 0.02 0.00 0.00 0.00 0.00 0.00 0.00 0.00 0.00 0.00 0.00 0.00 0.01 0.01 0.00 0.00 0.00 0.00 0.00 0.00 0.00 0.00
0.00 0.00 0.00 0.00 0.00 0.00 0.00 0.00 0.00 0.00 0.00 0.00 0.00 0.00 0.00 0.00 0.00 0.00 0.01 0.02 0.02 0.06 0.07 0.01 0.00 0.00 0.00 0.00 0.00 0.00 0.00 0.00 0.00 0.01 0.00 0.00 0.00 0.00 0.00 0.00 0.00 0.00 0.00 0.00 0.00 0.00 0.00
0.00 0.00 0.00 0.00 0.00 0.00 0.00 0.00 0.00 0.00 0.00 0.00 0.00 0.00 0.00 0.00 0.00 0.00 0.00 0.01 0.02 0.11 0.34 0.14 0.01 0.00 0.00 0.00 0.00 0.00 0.00 0.00 0.00 0.00 0.01 0.00 0.00 0.00 0.00 0.00 0.00 0.00 0.00 0.00 0.00 0.00 0.00
0.00 0.00 0.00 0.00 0.00 0.00 0.00 0.00 0.00 0.00 0.00 0.00 0.00 0.00 0.00 0.00 0.00 0.00 0.00 0.01 0.04 0.18 0.49 0.31 0.02 0.00 0.00 0.00 0.01 0.00 0.00 0.00 0.00 0.00 0.01 0.01 0.00 0.00 0.00 0.00 0.01 0.00 0.00 0.00 0.00 0.01 0.00
0.00 0.00 0.00 0.00 0.00 0.00 0.00 0.00 0.00 0.00 0.00 0.00 0.00 0.00 0.00 0.00 0.00 0.00 0.02 0.01 0.03 0.17 0.53 0.25 0.01 0.00 0.00 0.00 0.00 0.00 0.00 0.00 0.00 0.00 0.01 0.02 0.00 0.00 0.00 0.00 0.01 0.00 0.00 0.00 0.02 0.03 0.03
0.00 0.00 0.00 0.00 0.00 0.00 0.00 0.00 0.01 0.00 0.00 0.00 0.00 0.00 0.00 0.00 0.01 0.03 0.03 0.04 0.11 0.35 0.44 0.15 0.00 0.00 0.01 0.01 0.00 0.00 0.00 0.00 0.00 0.01 0.02 0.01 0.00 0.00 0.00 0.00 0.00 0.01 0.03 0.06 0.06 0.05 0.09
0.00 0.00 0.00 0.00 0.00 0.00 0.00 0.00 0.00 0.00 0.01 0.00 0.00 0.00 0.00 0.01 0.00 0.02 0.04 0.10 0.30 0.36 0.15 0.02 0.00 0.00 0.01 0.01 0.01 0.00 0.00 0.01 0.01 0.03 0.05 0.02 0.00 0.00 0.00 0.01 0.01 0.04 0.05 0.06 0.10 0.12 0.09
0.00 0.01 0.00 0.01 0.01 0.00 0.00 0.00 0.00 0.00 0.00 0.00 0.00 0.00 0.00 0.00 0.00 0.00 0.05 0.19 0.34 0.11 0.01 0.00 0.00 0.01 0.01 0.01 0.01 0.00 0.02 0.06 0.07 0.04 0.05 0.03 0.01 0.00 0.00 0.00 0.01 0.01 0.03 0.06 0.10 0.04 0.01
0.00 0.00 0.00 0.00 0.00 0.00 0.01 0.01 0.00 0.00 0.00 0.00 0.00 0.00 0.00 0.00 0.00 0.00 0.04 0.17 0.11 0.05 0.04 0.03 0.01 0.05 0.10 0.08 0.06 0.04 0.06 0.06 0.13 0.27 0.29 0.25 0.14 0.03 0.00 0.00 0.01 0.03 0.07 0.05 0.10 0.11 0.10
0.01 0.01 0.01 0.01 0.00 0.01 0.00 0.00 0.01 0.02 0.02 0.01 0.00 0.00 0.00 0.00 0.00 0.00 0.04 0.04 0.02 0.08 0.10 0.07 0.07 0.10 0.10 0.09 0.13 0.17 0.20 0.31 0.32 0.32 0.25 0.32 0.28 0.26 0.15 0.04 0.03 0.03 0.07 0.19 0.31 0.35 0.31
0.00 0.00 0.00 0.00 0.01 0.01 0.01 0.00 0.00 0.00 0.03 0.03 0.00 0.00 0.00 0.00 0.01 0.00 0.04 0.01 0.00 0.01 0.02 0.06 0.09 0.08 0.09 0.12 0.13 0.09 0.05 0.08 0.13 0.22 0.26 0.24 0.23 0.19 0.23 0.28 0.28 0.30 0.33 0.28 0.25 0.26 0.18
0.00 0.01 0.01 0.01 0.01 0.01 0.01 0.00 0.00 0.01 0.02 0.03 0.02 0.00 0.00 0.02 0.01 0.00 0.01 0.01 0.00 0.00 0.00 0.04 0.02 0.03 0.07 0.11 0.08 0.08 0.02 0.00 0.00 0.00 0.03 0.06 0.14 0.11 0.06 0.05 0.06 0.13 0.18 0.24 0.27 0.20 0.16
0.02 0.02 0.01 0.02 0.04 0.04 0.04 0.04 0.03 0.02 0.04 0.01 0.03 0.00 0.00 0.01 0.02 0.01 0.00 0.00 0.00 0.00 0.00 0.00 0.01 0.04 0.07 0.09 0.02 0.03 0.04 0.02 0.02 0.03 0.05 0.07 0.07 0.08 0.04 0.01 0.01 0.01 0.01 0.03 0.05 0.08 0.07
0.00 0.01 0.00 0.00 0.00 0.00 0.01 0.03 0.05 0.05 0.09 0.03 0.02 0.02 0.00 0.00 0.01 0.04 0.04 0.02 0.00 0.00 0.00 0.01 0.01 0.01 0.01 0.00 0.01 0.01 0.00 0.00 0.01 0.03 0.07 0.11 0.14 0.07 0.04 0.03 0.01 0.01 0.00 0.01 0.00 0.02 0.01
0.01 0.01 0.00 0.00 0.00 0.00 0.00 0.00 0.00 0.01 0.13 0.16 0.08 0.01 0.00 0.00 0.00 0.00 0.01 0.04 0.03 0.01 0.01 0.01 0.00 0.00 0.00 0.00 0.00 0.00 0.00 0.00 0.00 0.00 0.01 0.02 0.05 0.03 0.02 0.03 0.01 0.00 0.00 0.01 0.00 0.00 0.00
0.00 0.00 0.00 0.00 0.00 0.00 0.00 0.01 0.01 0.03 0.08 0.17 0.27 0.06 0.02 0.00 0.00 0.00 0.01 0.01 0.00 0.00 0.00 0.00 0.00 0.00 0.00 0.00 0.00 0.00 0.00 0.00 0.00 0.00 0.00 0.01 0.00 0.00 0.00 0.00 0.00 0.01 0.01 0.00 0.00 0.00 0.00
0.00 0.00 0.00 0.00 0.00 0.01 0.01 0.02 0.02 0.06 0.09 0.02 0.07 0.11 0.11 0.05 0.00 0.00 0.00 0.00 0.00 0.00 0.00 0.00 0.00 0.00 0.00 0.00 0.00 0.00 0.00 0.00 0.00 0.00 0.00 0.00 0.00 0.00 0.00 0.00 0.00 0.00 0.00 0.00 0.00 0.00 0.00
0.00 0.00 0.00 0.00 0.00 0.00 0.00 0.01 0.01 0.03 0.08 0.03 0.00 0.01 0.10 0.09 0.02 0.01 0.00 0.00 0.00 0.00 0.00 0.00 0.00 0.00 0.00 0.00 0.00 0.00 0.00 0.00 0.00 0.00 0.00 0.00 0.00 0.02 0.01 0.00 0.01 0.00 0.00 0.00 0.00 0.00 0.00
0.00 0.00 0.00 0.00 0.00 0.00 0.00 0.00 0.01 0.02 0.06 0.09 0.06 0.02 0.06 0.05 0.01 0.01 0.01 0.01 0.01 0.01 0.01 0.00 0.00 0.00 0.00 0.00 0.00 0.00 0.00 0.00 0.00 0.00 0.00 0.00 0.00 0.00 0.01 0.01 0.00 0.00 0.00 0.00 0.00 0.00 0.00
0.00 0.00 0.00 0.00 0.00 0.00 0.00 0.00 0.01 0.02 0.04 0.06 0.08 0.05 0.11 0.07 0.01 0.00 0.03 0.02 0.00 0.00 0.00 0.00 0.00 0.00 0.00 0.01 0.01 0.01 0.01 0.01 0.00 0.00 0.00 0.00 0.01 0.01 0.00 0.01 0.00 0.00 0.00 0.00 0.00 0.00 0.00
0.00 0.00 0.01 0.01 0.00 0.00 0.00 0.00 0.01 0.01 0.05 0.02 0.01 0.01 0.07 0.13 0.01 0.00 0.00 0.00 0.00 0.00 0.00 0.00 0.00 0.00 0.02 0.01 0.01 0.01 0.04 0.02 0.00 0.00 0.00 0.01 0.03 0.03 0.01 0.02 0.00 0.00 0.00 0.00 0.00 0.00 0.00
0.00 0.00 0.00 0.00 0.00 0.00 0.00 0.00 0.00 0.01 0.03 0.01 0.01 0.00 0.02 0.05 0.01 0.01 0.00 0.00 0.00 0.01 0.01 0.00 0.01 0.05 0.05 0.04 0.03 0.03 0.01 0.00 0.00 0.00 0.00 0.00 0.00 0.00 0.01 0.02 0.01 0.00 0.00 0.00 0.00 0.00 0.00
0.00 0.00 0.00 0.00 0.00 0.00 0.00 0.00 0.01 0.02 0.00 0.00 0.04 0.18 0.14 0.02 0.00 0.00 0.00 0.00 0.00 0.00 0.00 0.07 0.13 0.11 0.24 0.17 0.04 0.03 0.04 0.01 0.00 0.00 0.00 0.00 0.00 0.00 0.00 0.00 0.00 0.00 0.00 0.00 0.00 0.00 0.00
MSLP
1012.34 1012.52 1012.53 1012.49 1012.44 1012.44 1012.56 1012.39 1012.34 1012.44 1012.40 1012.47 1012.43 1012.47 1012.57 1012.61 1012.58 1012.58 1012.63 1012.62 1012.60 1012.73 1012.75 1012.88 1013.13 1013.27 1013.44 1012.44 1010.58 1009.56 1009.53 1009.64 1010.06 1010.45 1010.79 1011.14 1011.47 1011.50 1011.16 1010.79 1010.28 1009.81 1008.92 1008.52 1007.87 1007.18 1006.66
1011.83 1012.02 1011.91 1011.87 1011.80 1011.76 1011.69 1011.64 1011.74 1011.66 1011.71 1011.75 1011.77 1011.80 1011.83 1011.93 1011.90 1011.87 1012.06 1012.14 1012.12 1012.13 1012.09 1012.17 1012.36 1012.68 1012.36 1010.08 1009.54 1009.47 1009.34 1009.68 1009.76 1010.29 1010.28 1010.74 1010.54 1010.76 1010.58 1010.34 1010.11 1009.04 1008.45 1007.98 1007.42 1006.53 1006.14
1011.94 1011.67 1011.82 1011.80 1011.66 1011.32 1011.07 1011.08 1010.96 1010.91 1010.97 1010.94 1010.90 1010.98 1011.06 1011.14 1011.18 1011.14 1011.16 1011.36 1011.42 1011.52 1011.53 1011.54 1011.71 1011.90 1010.27 1008.07 1008.80 1009.06 1008.77 1008.33 1008.81 1009.31 1009.78 1009.80 1010.36 1010.68 1010.22 1009.82 1009.14 1008.81 1008.17 1007.52 1006.38 1005.99 1004.87
1011.79 1011.84 1011.98 1012.34 1012.09 1011.68 1011.42 1011.38 1011.10 1010.78 1010.64 1010.41 1010.36 1010.27 1010.37 1010.34 1010.35 1010.40 1010.43 1010.44 1010.46 1010.54 1010.65 1010.81 1010.99 1010.96 1007.28 1006.62 1007.62 1008.32 1007.60 1007.51 1007.80 1008.69 1008.97 1009.36 1009.89 1009.85 1009.78 1009.60 1009.16 1008.92 1008.38 1006.83 1005.16 1005.10 1004.68
1012.13 1012.11 1012.13 1012.33 1012.40 1012.14 1011.86 1011.63 1011.34 1011.13 1010.96 1010.85 1010.40 1010.29 1009.94 1009.73 1009.75 1009.79 1009.77 1009.72 1009.69 1009.54 1009.67 1009.94 1010.31 1009.92 1006.70 1006.41 1006.62 1006.42 1006.46 1007.01 1007.80 1008.44 1008.70 1008.94 1009.37 1008.80 1009.06 1009.32 1009.06 1008.13 1006.59 1005.83 1005.45 1004.92 1004.52
1012.93 1012.41 1012.62 1012.63 1012.20 1012.30 1012.09 1011.92 1011.49 1011.60 1011.32 1010.98 1010.75 1010.39 1010.36 1009.91 1009.74 1009.60 1009.30 1009.30 1008.95 1009.08 1009.06 1009.42 1009.06 1009.23 1006.42 1005.59 1005.60 1005.68 1006.19 1007.14 1007.38 1008.12 1008.45 1008.61 1008.56 1007.86 1007.81 1008.08 1006.92 1006.41 1005.98 1005.44 1004.90 1004.73 1003.93
1013.05 1013.02 1013.05 1012.66 1012.44 1012.42 1012.14 1011.76 1011.86 1011.36 1011.42 1011.09 1010.91 1010.51 1010.40 1010.04 1009.58 1009.64 1009.36 1009.12 1009.38 1008.82 1007.79 1006.69 1006.21 1004.91 1004.27 1004.54 1004.75 1005.16 1005.55 1006.60 1006.78 1007.21 1007.22 1007.33 1007.00 1005.25 1005.81 1005.80 1005.67 1005.67 1005.34 1004.83 1005.03 1004.72 1004.27
1013.20 1013.26 1012.82 1012.66 1012.47 1012.40 1012.15 1012.06 1011.76 1011.64 1011.14 1011.10 1010.98 1010.72 1010.45 1009.94 1009.70 1009.71 1009.33 1008.34 1008.02 1008.10 1006.64 1005.66 1004.66 1003.20 1002.94 1003.54 1003.36 1004.08 1004.88 1005.72 1005.52 1005.60 1005.89 1006.14 1003.56 1004.84 1004.74 1004.65 1005.04 1005.02 1004.16 1003.54 1004.06 1004.65 1004.21
1013.18 1013.38 1012.90 1012.71 1012.59 1012.22 1012.09 1012.08 1011.81 1011.37 1011.33 1011.18 1011.00 1010.69 1010.64 1009.97 1009.37 1009.27 1009.32 1008.63 1008.01 1007.70 1006.32 1003.76 1003.27 1002.25 1002.23 1003.12 1001.50 1002.19 1003.76 1003.63 1003.43 1003.82 1003.64 1003.17 1001.29 1003.72 1003.98 1004.07 1003.98 1003.18 1002.76 1003.03 1003.12 1003.66 1003.26
1012.84 1013.44 1012.73 1012.56 1012.47 1012.42 1012.00 1011.78 1011.60 1011.68 1011.50 1011.11 1010.82 1010.71 1010.31 1009.82 1009.94 1009.13 1009.02 1009.24 1008.26 1008.00 1005.66 1003.33 1001.88 1000.11 1000.81 1001.46 1000.10 1001.26 1001.40 1002.64 1002.08 1001.14 1002.39 1001.54 1000.57 1001.63 1002.16 1001.48 1002.82 1001.78 1001.84 1001.88 1002.27 1003.23 1002.27
1012.92 1013.08 1012.84 1012.61 1012.54 1012.47 1012.02 1011.85 1011.41 1011.22 1011.08 1011.24 1010.96 1010.78 1010.19 1010.35 1010.00 1009.83 1009.65 1008.98 1008.51 1007.76 1005.30 1003.00 1000.91 999.52 999.61 999.98 999.47 999.30 999.64 1000.92 1000.01 1000.16 1001.57 997.75 999.20 1000.00 1000.17 998.30 1001.34 999.24 1001.28 1001.54 1001.22 1001.59 1001.96
1013.17 1012.95 1012.83 1012.57 1012.42 1012.19 1012.00 1011.40 1011.56 1011.30 1010.92 1010.91 1010.77 1010.64 1010.76 1010.14 1010.48 1009.94 1009.52 1008.69 1008.73 1007.54 1003.73 1002.39 1000.60 999.73 999.94 999.94 999.28 999.54 999.38 1000.13 999.90 1000.75 1000.03 998.88 999.11 999.34 998.77 999.20 999.60 999.82 1000.42 1000.60 1000.40 1000.22 999.68
1013.05 1012.89 1012.52 1012.31 1012.35 1011.99 1011.58 1011.56 1011.24 1011.37 1011.03 1010.62 1010.55 1010.41 1010.66 1010.51 1010.50 1009.86 1009.69 1009.58 1008.32 1005.97 1003.67 1001.84 1000.65 1000.11 999.93 1000.07 999.50 999.52 999.81 1000.00 999.78 1000.02 999.63 999.14 998.56 998.55 999.31 999.20 999.38 999.67 999.92 999.55 999.26 998.02 995.90
1012.84 1012.74 1012.60 1012.28 1011.83 1011.54 1011.36 1011.32 1011.07 1010.95 1010.85 1010.40 1010.18 1010.16 1010.25 1010.28 1010.26 1009.82 1010.30 1009.92 1007.52 1005.14 1003.85 1001.90 1001.36 1000.92 1000.57 1000.18 999.99 999.64 999.96 999.95 999.66 999.91 999.85 998.98 998.17 997.30 997.60 997.81 997.71 998.44 998.89 998.26 997.34 996.80 996.13
1012.64 1012.32 1011.96 1011.65 1011.50 1011.39 1011.20 1010.94 1010.70 1010.38 1010.28 1010.11 1010.29 1010.66 1010.57 1009.92 1009.76 1010.03 1010.74 1009.66 1007.17 1006.03 1005.46 1004.18 1003.07 1002.56 1001.82 1001.33 1001.28 1000.90 1000.65 1001.15 1001.11 1001.51 1001.44 1000.62 999.18 999.18 999.22 998.93 998.73 997.71 997.57 997.56 998.02 997.88 997.05
1012.12 1011.81 1011.54 1011.29 1011.10 1010.84 1010.62 1010.45 1010.24 1010.17 1010.18 1010.26 1010.86 1011.06 1010.24 1009.62 1009.52 1010.02 1010.08 1009.02 1007.74 1007.14 1006.41 1005.66 1004.70 1003.91 1002.92 1002.56 1002.68 1002.71 1001.04 1002.08 1002.65 1003.04 1002.82 1002.37 1001.96 1001.40 1001.55 1000.32 999.85 999.48 999.12 998.84 998.03 997.53 997.04
1011.71 1011.42 1011.12 1010.85 1010.62 1010.40 1010.24 1010.12 1010.01 1010.05 1010.08 1010.24 1011.04 1011.04 1009.75 1009.39 1009.52 1010.01 1009.59 1009.17 1007.82 1007.06 1006.86 1006.80 1006.12 1004.99 1004.88 1004.11 1003.49 1003.72 1002.84 1002.51 1003.18 1003.68 1003.37 1003.26 1002.36 1002.25 1002.21 1002.16 1001.40 1000.80 1000.55 1001.25 1000.71 1000.05 999.31
1011.23 1010.93 1010.64 1010.38 1010.17 1009.90 1009.75 1009.72 1009.74 1009.78 1010.00 1010.31 1011.16 1011.03 1009.74 1009.55 1010.35 1010.16 1009.60 1008.80 1007.92 1007.05 1006.98 1007.02 1006.58 1006.08 1005.37 1005.06 1004.68 1004.08 1003.98 1003.37 1003.40 1003.62 1003.69 1003.37 1003.06 1002.78 1002.40 1002.42 1002.54 1001.82 1001.88 1002.69 1002.62 1001.82 1000.94
1010.88 1010.60 1010.28 1010.00 1009.77 1009.55 1009.34 1009.23 1009.17 1009.18 1009.63 1010.37 1010.72 1010.70 1010.00 1009.94 1010.15 1009.78 1009.28 1008.61 1008.04 1007.26 1006.69 1006.47 1006.31 1006.14 1006.03 1005.54 1005.44 1004.70 1004.38 1004.01 1003.55 1003.56 1003.63 1003.61 1003.60 1003.33 1002.80 1002.60 1002.64 1001.74 1002.72 1002.75 1002.76 1003.14 1002.18
1010.62 1010.34 1010.08 1009.78 1009.52 1009.32 1009.14 1008.97 1008.84 1008.76 1009.07 1009.88 1010.64 1010.72 1010.41 1010.01 1009.67 1009.54 1009.05 1008.30 1007.79 1006.96 1006.60 1006.39 1006.47 1006.18 1006.05 1005.78 1005.69 1005.25 1004.64 1003.79 1003.51 1003.40 1003.55 1004.15 1003.90 1003.62 1003.12 1002.86 1002.75 1002.88 1002.93 1003.16 1003.36 1003.78 1003.04
1010.35 1010.06 1009.82 1009.56 1009.28 1009.05 1008.87 1008.72 1008.57 1008.51 1008.58 1009.33 1009.56 1009.78 1009.26 1009.59 1009.30 1009.22 1009.08 1008.62 1007.78 1007.46 1006.88 1006.70 1006.49 1006.42 1006.56 1006.74 1006.20 1005.61 1004.94 1004.43 1003.83 1003.58 1003.61 1004.08 1004.02 1003.85 1003.60 1003.46 1003.67 1003.45 1003.32 1003.08 1003.33 1003.00 1003.10
1010.21 1009.86 1009.55 1009.25 1008.97 1008.71 1008.46 1008.27 1008.18 1008.20 1008.41 1009.15 1009.34 1009.71 1009.61 1009.03 1008.55 1008.72 1008.47 1008.21 1007.77 1007.34 1007.26 1006.88 1006.78 1006.70 1006.76 1006.75 1006.56 1006.21 1005.78 1005.38 1004.92 1004.37 1004.27 1004.49 1004.55 1004.37 1004.06 1003.78 1003.68 1003.56 1003.26 1003.16 1003.15 1002.70 1001.36
1010.06 1009.66 1009.27 1008.90 1008.53 1008.20 1007.96 1007.80 1007.69 1007.69 1008.10 1008.41 1009.03 1009.29 1009.45 1009.00 1008.77 1008.48 1008.03 1007.62 1007.27 1007.14 1006.92 1006.76 1006.81 1006.86 1006.78 1006.41 1006.03 1005.81 1005.74 1005.61 1005.31 1005.20 1005.20 1005.23 1005.34 1005.36 1004.68 1004.21 1003.98 1003.63 1002.35 1002.08 1001.70 1001.18 1001.34
1009.90 1009.49 1009.13 1008.78 1008.41 1008.03 1007.68 1007.40 1007.17 1007.04 1007.20 1007.61 1008.03 1008.49 1008.69 1008.42 1008.31 1007.71 1007.72 1007.55 1007.30 1007.10 1006.98 1006.61 1006.52 1006.46 1006.00 1005.63 1005.65 1005.56 1005.48 1005.16 1004.95 1004.74 1004.91 1005.15 1005.56 1005.82 1005.43 1004.96 1004.22 1002.35 1001.88 1001.50 1001.29 1001.18 1001.39
1009.77 1009.26 1008.92 1008.60 1008.26 1007.86 1007.48 1007.13 1006.82 1006.56 1006.43 1006.67 1006.85 1007.20 1007.46 1007.47 1007.44 1007.29 1007.21 1007.36 1007.12 1006.87 1006.78 1006.54 1005.96 1005.61 1005.51 1005.82 1006.10 1005.95 1005.56 1005.11 1004.15 1003.78 1004.21 1004.81 1005.69 1006.12 1006.04 1005.44 1003.99 1002.66 1002.11 1001.97 1001.54 1001.36 1001.33
1009.82 1009.33 1008.88 1008.42 1007.99 1007.62 1007.26 1006.80 1006.30 1005.94 1005.60 1005.60 1005.88 1005.94 1006.61 1007.03 1006.67 1006.55 1006.81 1006.89 1007.22 1007.18 1006.81 1006.06 1005.30 1005.00 1005.36 1005.79 1006.20 1006.06 1005.54 1004.59 1003.85 1003.39 1003.56 1004.58 1005.41 1006.33 1006.54 1005.93 1004.57 1003.16 1002.47 1002.18 1001.98 1001.79 1001.50
1010.08 1009.54 1009.01 1008.42 1007.87 1007.51 1007.12 1006.60 1005.94 1005.46 1004.99 1005.30 1005.62 1005.96 1006.61 1006.76 1006.31 1006.02 1006.28 1006.19 1006.42 1006.70 1006.78 1006.18 1005.52 1005.16 1005.04 1005.66 1006.02 1005.72 1005.13 1004.85 1004.05 1003.69 1004.19 1004.84 1005.42 1005.86 1006.18 1005.98 1004.34 1003.01 1002.64 1002.34 1002.66 1002.39 1001.68
1010.26 1009.74 1009.19 1008.60 1007.96 1007.60 1007.22 1006.72 1005.91 1005.50 1005.25 1005.49 1005.72 1005.79 1006.03 1006.25 1005.85 1005.47 1005.34 1005.26 1005.44 1005.75 1006.26 1006.08 1005.88 1005.40 1005.32 1005.11 1005.24 1004.96 1004.81 1004.53 1004.54 1004.14 1004.28 1004.85 1005.38 1005.90 1005.85 1005.58 1004.29 1002.80 1003.06 1002.84 1002.16 1001.70 1001.63
1010.32 1009.83 1009.29 1008.81 1008.34 1007.86 1007.40 1006.92 1006.46 1006.08 1005.76 1005.60 1005.84 1005.77 1005.73 1006.20 1005.99 1005.49 1004.90 1004.47 1004.35 1004.62 1005.23 1005.57 1005.58 1005.16 1004.48 1004.17 1004.54 1004.48 1004.50 1004.42 1004.26 1004.32 1004.30 1004.64 1004.19 1004.53 1004.82 1004.02 1003.02 1002.73 1002.41 1002.00 1002.09 1002.19 1002.04
Thickness
5633 5633 5633 5634 5635 5636 5635 5637 5638 5638 5639 5639 5640 5640 5638 5638 5638 5639 5638 5638 5639 5638 5638 5637 5634 5633 5631 5636 5648 5672 5669 5667 5664 5659 5654 5648 5643 5641 5635 5638 5648 5645 5661 5664 5669 5677 5678
5625 5624 5626 5627 5628 5629 5630 5631 5629 5631 5632 5632 5631 5631 5631 5630 5631 5631 5630 5629 5630 5630 5632 5631 5629 5626 5627 5635 5653 5667 5663 5658 5655 5649 5649 5646 5645 5643 5635 5637 5636 5652 5656 5656 5667 5676 5675
5613 5616 5614 5614 5615 5619 5621 5621 5622 5623 5624 5624 5625 5624 5624 5623 5622 5624 5624 5623 5623 5623 5623 5624 5622 5620 5630 5647 5646 5651 5663 5664 5656 5648 5639 5644 5640 5632 5638 5631 5644 5644 5639 5649 5670 5675 5680
5600 5600 5598 5595 5597 5599 5603 5604 5606 5609 5611 5614 5614 5616 5616 5616 5616 5616 5616 5617 5618 5617 5617 5616 5614 5613 5640 5652 5645 5642 5664 5659 5656 5642 5640 5641 5632 5627 5627 5632 5627 5626 5631 5639 5673 5675 5676
5583 5583 5582 5581 5580 5580 5582 5586 5589 5590 5592 5595 5600 5600 5605 5608 5608 5606 5606 5608 5609 5611 5610 5608 5603 5607 5633 5640 5638 5655 5649 5642 5634 5631 5629 5632 5628 5628 5622 5615 5611 5621 5633 5642 5646 5668 5667
5561 5567 5565 5564 5567 5564 5566 5567 5572 5571 5574 5579 5581 5586 5586 5592 5593 5593 5595 5594 5597 5597 5601 5597 5599 5598 5630 5636 5634 5636 5635 5632 5626 5619 5618 5618 5620 5624 5617 5612 5621 5630 5628 5636 5638 5649 5662
5544 5544 5543 5546 5545 5545 5549 5552 5551 5556 5555 5559 5563 5568 5569 5573 5578 5578 5580 5582 5581 5585 5594 5608 5610 5622 5630 5631 5627 5623 5623 5614 5615 5613 5613 5617 5616 5623 5626 5631 5634 5629 5625 5624 5621 5638 5643
5525 5522 5524 5525 5527 5526 5527 5529 5532 5534 5538 5541 5542 5546 5550 5557 5559 5558 5561 5573 5578 5570 5582 5595 5607 5621 5631 5623 5619 5615 5615 5603 5606 5609 5609 5606 5624 5626 5634 5632 5622 5619 5624 5628 5631 5626 5628
5506 5501 5504 5505 5505 5507 5508 5507 5510 5515 5516 5519 5520 5526 5528 5534 5541 5544 5543 5550 5554 5553 5559 5592 5597 5611 5616 5605 5619 5616 5605 5606 5606 5604 5607 5612 5639 5621 5616 5613 5614 5623 5623 5626 5624 5627 5628
5487 5479 5484 5484 5484 5482 5486 5488 5489 5488 5491 5496 5501 5503 5510 5518 5517 5525 5528 5524 5531 5534 5540 5561 5586 5607 5605 5599 5606 5614 5612 5600 5601 5608 5603 5605 5634 5617 5609 5619 5611 5617 5635 5631 5624 5608 5609
5466 5461 5460 5461 5459 5460 5462 5463 5468 5470 5473 5472 5476 5480 5489 5489 5494 5498 5503 5508 5512 5518 5522 5546 5581 5596 5598 5589 5605 5605 5610 5593 5598 5606 5590 5625 5622 5607 5605 5636 5610 5628 5621 5615 5617 5606 5602
5441 5440 5438 5438 5437 5439 5439 5444 5442 5446 5451 5451 5454 5457 5459 5469 5467 5475 5479 5492 5493 5500 5518 5539 5567 5572 5575 5579 5585 5590 5588 5584 5590 5578 5585 5599 5615 5604 5611 5615 5613 5620 5606 5603 5605 5604 5596
5421 5419 5420 5419 5417 5418 5421 5421 5424 5424 5427 5434 5436 5440 5441 5440 5444 5453 5459 5464 5475 5487 5510 5534 5552 5559 5562 5566 5568 5573 5571 5568 5575 5572 5576 5585 5594 5603 5598 5588 5597 5597 5589 5587 5588 5593 5605
5402 5400 5398 5400 5402 5404 5404 5404 5406 5407 5409 5414 5420 5423 5423 5420 5427 5435 5432 5440 5458 5484 5507 5523 5533 5538 5545 5557 5554 5560 5562 5563 5567 5569 5572 5576 5579 5604 5603 5592 5601 5595 5589 5587 5591 5595 5604
5386 5386 5386 5387 5387 5386 5386 5388 5390 5392 5394 5398 5400 5400 5403 5403 5414 5413 5406 5411 5449 5468 5461 5470 5495 5507 5515 5526 5527 5533 5536 5540 5535 5514 5546 5541 5570 5555 5557 5569 5582 5592 5579 5605 5581 5587 5582
5374 5374 5374 5374 5374 5375 5375 5375 5375 5375 5374 5377 5375 5375 5380 5390 5394 5394 5393 5408 5419 5427 5432 5440 5463 5469 5491 5495 5496 5496 5510 5495 5498 5485 5495 5497 5522 5508 5514 5538 5545 5554 5570 5577 5574 5581 5590
5362 5362 5363 5363 5363 5363 5363 5362 5362 5361 5360 5361 5357 5355 5368 5373 5374 5374 5375 5374 5405 5415 5417 5416 5423 5435 5449 5455 5465 5475 5487 5486 5483 5478 5475 5475 5493 5503 5502 5506 5518 5527 5532 5523 5527 5529 5543
5357 5357 5357 5356 5356 5356 5355 5354 5352 5349 5346 5345 5340 5333 5354 5355 5352 5353 5341 5376 5395 5405 5405 5398 5404 5415 5432 5433 5438 5456 5455 5472 5476 5474 5475 5476 5474 5485 5498 5494 5494 5490 5502 5491 5495 5507 5504
5355 5354 5353 5352 5351 5351 5349 5348 5346 5344 5336 5331 5333 5332 5339 5339 5316 5339 5349 5364 5372 5383 5387 5395 5401 5409 5411 5418 5413 5437 5433 5449 5458 5460 5460 5459 5462 5463 5477 5482 5489 5489 5485 5480 5468 5468 5483
5352 5350 5348 5347 5345 5344 5342 5340 5338 5336 5329 5321 5318 5321 5319 5330 5336 5342 5350 5355 5361 5375 5379 5384 5389 5394 5399 5407 5412 5406 5430 5445 5447 5445 5452 5441 5448 5448 5461 5464 5462 5468 5474 5469 5451 5440 5458
5348 5346 5344 5343 5341 5339 5337 5334 5332 5329 5325 5315 5312 5308 5320 5304 5328 5327 5335 5341 5348 5352 5366 5370 5374 5378 5375 5359 5388 5403 5415 5420 5432 5438 5439 5434 5434 5434 5444 5448 5444 5450 5451 5457 5454 5462 5448
5345 5344 5342 5341 5338 5335 5331 5326 5323 5320 5315 5308 5306 5305 5303 5312 5330 5323 5322 5329 5338 5345 5347 5352 5357 5364 5366 5359 5372 5369 5387 5395 5401 5415 5416 5417 5397 5421 5426 5438 5434 5433 5442 5438 5443 5447 5449
5342 5342 5341 5339 5336 5330 5326 5323 5321 5317 5310 5304 5299 5297 5297 5303 5310 5312 5320 5332 5337 5341 5346 5351 5348 5338 5336 5356 5366 5371 5375 5381 5387 5393 5392 5391 5394 5381 5394 5422 5418 5396 5434 5442 5446 5451 5447
5341 5341 5340 5337 5332 5327 5323 5320 5318 5316 5311 5305 5302 5298 5292 5301 5304 5316 5322 5325 5327 5329 5328 5341 5345 5343 5359 5363 5364 5367 5367 5372 5375 5382 5382 5386 5389 5387 5385 5397 5353 5427 5429 5433 5431 5437 5429
5340 5340 5339 5335 5330 5325 5321 5319 5317 5316 5312 5307 5304 5301 5299 5295 5304 5311 5314 5313 5318 5326 5328 5333 5343 5349 5352 5354 5332 5345 5355 5367 5380 5384 5380 5384 5376 5338 5341 5381 5400 5414 5412 5412 5417 5425 5417
5338 5337 5337 5335 5331 5327 5322 5321 5320 5318 5314 5310 5307 5307 5300 5293 5296 5310 5304 5312 5305 5301 5310 5326 5341 5346 5345 5336 5323 5328 5352 5375 5386 5392 5385 5378 5374 5351 5323 5350 5355 5398 5399 5400 5403 5396 5404
5334 5333 5333 5333 5331 5328 5325 5323 5323 5321 5319 5312 5308 5304 5296 5293 5294 5303 5302 5305 5308 5304 5295 5313 5330 5338 5340 5328 5325 5339 5351 5356 5371 5384 5376 5373 5367 5361 5346 5350 5359 5373 5385 5392 5368 5380 5392
5330 5329 5329 5329 5330 5327 5325 5323 5324 5322 5319 5313 5309 5306 5300 5300 5300 5310 5315 5316 5315 5312 5307 5307 5316 5331 5330 5337 5340 5336 5337 5348 5357 5363 5364 5352 5340 5341 5355 5342 5336 5376 5374 5373 5372 5385 5386
5327 5327 5327 5326 5326 5326 5325 5323 5322 5320 5318 5315 5310 5307 5307 5303 5300 5308 5315 5322 5325 5322 5315 5318 5327 5334 5344 5339 5330 5338 5347 5343 5352 5348 5352 5342 5356 5339 5346 5336 5359 5364 5363 5374 5373 5369 5372